Probability
0 0 0 0 0 0 0 0 1 2 1 2 6 11 12 8 4 1 0 1 3 6 8 12 14 12 10 9 7 5 4 2 1 1 1 2 1 1 0 0 0 0 0 0 0 0 0 0 0
0 0 0 0 0 0 0 0 2 3 3 5 11 15 14 9 5 2 1 1 5 7 10 14 17 16 12 9 7 6 5 3 2 2 2 2 1 1 0 0 0 0 0 0 0 0 0 0 0
0 0 0 0 0 0 0 1 4 6 8 12 19 23 17 9 5 3 2 4 8 9 11 16 21 21 15 11 9 7 6 4 3 3 3 2 1 0 0 0 0 0 0 0 0 0 0 0 0
0 0 0 0 0 0 1 3 5 9 14 20 27 28 19 9 5 4 4 8 11 12 13 17 23 24 18 13 10 8 7 6 5 4 4 3 1 0 0 0 0 0 0 0 0 0 0 0 0
0 0 0 0 0 1 2 5 8 12 19 25 30 29 20 11 9 9 8 11 15 16 15 18 23 24 21 16 12 10 9 8 6 5 5 5 3 1 0 0 0 0 0 0 0 0 0 0 0
0 0 0 0 1 2 4 7 10 16 23 26 28 28 21 14 14 13 13 15 18 18 18 20 22 23 23 21 19 16 13 10 7 5 5 5 4 2 1 0 0 0 0 0 0 0 0 0 0
0 0 0 0 2 3 4 6 11 18 25 27 29 29 24 17 16 16 17 18 18 19 20 21 21 21 22 24 24 22 20 16 11 7 6 5 5 3 2 1 1 0 0 0 1 1 1 1 1
0 0 0 1 3 4 4 7 13 20 24 26 27 28 25 22 21 22 22 21 19 19 22 22 21 20 20 22 23 23 21 19 14 9 7 7 5 3 2 2 2 1 1 1 2 2 2 2 2
0 0 0 1 3 4 5 9 17 22 24 24 25 27 28 28 28 29 27 23 18 17 19 21 21 20 19 19 20 19 18 16 13 10 8 8 5 2 1 3 3 2 2 2 2 3 4 4 4
0 0 1 2 4 6 8 12 18 23 24 25 26 29 32 34 34 32 28 23 17 13 14 16 17 18 18 17 18 17 15 14 12 10 8 7 5 2 1 3 3 2 3 2 2 3 4 4 3
1 1 2 4 7 8 11 15 19 23 24 25 29 33 34 34 35 32 26 23 19 14 12 13 14 14 13 13 14 14 13 12 10 9 9 7 5 2 2 2 2 2 2 1 1 2 2 2 2
2 3 4 7 9 10 12 15 20 25 25 25 29 33 31 29 30 29 26 25 24 20 16 15 14 12 11 10 9 9 10 9 7 7 9 7 4 4 3 2 3 3 2 0 0 1 1 1 1
3 3 5 7 8 10 11 13 18 23 24 23 25 27 26 25 24 25 25 27 28 25 21 19 16 14 13 12 10 9 9 8 6 6 6 5 3 4 4 3 4 4 2 1 0 1 1 0 0
4 4 4 5 5 6 9 12 15 17 17 17 19 22 24 24 22 20 22 25 28 29 27 23 18 16 16 14 12 11 9 8 7 6 5 3 2 4 5 5 4 3 2 1 0 0 0 0 0
6 5 4 3 3 2 4 8 12 12 12 15 19 22 24 24 21 19 19 21 25 28 29 26 21 18 17 15 14 12 10 9 8 6 5 3 3 4 5 5 3 2 1 0 0 0 0 0 0
5 4 3 2 2 1 2 4 8 11 14 21 26 25 24 22 20 20 20 21 23 25 26 25 22 20 18 16 15 12 10 8 6 4 3 3 3 3 3 2 1 0 0 0 0 0 0 0 0
2 1 1 1 1 2 3 4 7 12 17 23 27 27 26 24 22 22 23 24 24 23 24 24 23 21 18 14 13 11 7 4 2 1 1 1 1 1 1 1 0 0 0 0 0 0 0 0 0
0 0 0 0 1 2 5 8 11 14 17 21 23 25 26 26 25 23 23 23 22 21 21 21 21 18 14 10 8 6 3 1 0 0 1 1 1 1 0 0 0 0 0 0 0 0 0 0 0
0 0 0 0 1 3 6 10 14 15 17 19 22 24 25 26 24 22 21 19 18 17 15 15 14 12 8 6 4 2 1 0 0 0 1 2 1 0 0 0 0 0 0 0 0 0 0 0 0
0 0 0 0 1 2 6 10 14 16 17 19 20 23 24 24 23 21 18 16 15 14 13 11 10 8 5 4 3 1 0 0 0 0 1 2 2 1 0 0 0 0 0 0 0 0 0 0 0
0 0 0 0 0 1 4 7 10 14 17 18 19 21 23 24 25 23 18 15 13 13 13 11 9 7 5 4 3 1 1 1 1 1 1 2 2 2 1 1 1 0 0 0 0 0 0 0 0
0 0 0 0 0 0 1 2 6 12 17 19 20 21 21 21 23 24 19 14 11 10 11 11 8 7 6 5 3 2 2 2 2 2 2 3 3 3 3 2 2 1 0 0 0 0 0 0 0
0 0 0 0 0 0 0 0 3 9 15 18 20 20 17 16 20 22 18 13 9 7 8 8 8 6 5 4 3 2 1 1 2 3 3 3 3 3 3 3 2 1 0 0 0 0 0 0 0
0 0 0 0 0 0 0 0 1 5 11 15 16 15 15 15 17 18 16 12 8 6 6 6 6 6 5 4 3 1 0 0 1 2 2 2 1 1 2 2 1 0 0 0 0 0 0 0 0
0 0 0 0 0 0 0 0 0 3 9 13 13 13 15 16 15 14 13 11 8 7 5 5 6 6 6 4 2 1 0 0 1 1 1 1 0 0 1 1 0 0 0 0 0 0 0 0 0
0 0 0 0 0 0 0 0 0 2 7 11 12 13 16 16 13 11 10 9 8 7 5 5 5 5 4 3 2 1 1 0 0 0 0 0 0 0 0 0 0 0 0 0 0 0 0 0 0
0 0 0 0 0 0 0 0 0 3 7 10 11 13 14 13 9 8 8 8 8 7 5 4 4 4 3 2 1 1 1 0 0 0 0 0 0 0 0 0 0 0 0 0 0 0 0 0 0
0 0 0 0 0 0 0 0 1 4 8 10 11 12 12 9 7 6 7 7 7 6 4 3 3 3 2 2 1 1 0 0 0 0 0 0 0 0 0 0 0 0 0 0 0 0 0 0 0
0 0 0 0 0 0 0 0 1 4 8 10 10 10 9 7 6 6 6 5 5 4 3 3 3 3 3 2 1 0 0 0 0 0 0 0 0 0 0 0 0 0 0 0 0 0 0 0 0
0 0 0 0 0 0 0 1 2 4 7 9 9 9 8 6 6 6 5 4 4 3 3 3 3 3 3 2 1 0 0 0 0 0 0 0 0 0 0 0 0 0 0 0 0 0 0 0 0
Wind_Speed
5 4 1 3 5 4 2 5 1 2 3 5 10 12 11 7 5 7 5 13 15 13 10 13 15 15 15 15 15 15 15 14 14 14 13 13 12 12 11 11 10 9 9 9 9 8 8 8 8
3 2 3 4 5 1 4 4 2 2 7 9 11 12 11 9 9 10 7 12 14 13 9 11 15 15 15 15 14 14 14 14 13 13 12 12 11 10 10 10 9 8 8 8 7 7 7 6 6
3 0 3 4 3 5 4 2 3 7 7 7 7 8 7 6 8 6 9 15 13 11 9 12 16 16 15 15 14 14 14 13 13 12 11 11 10 9 9 8 8 7 7 6 6 6 5 4 4
2 4 4 3 4 6 5 4 2 6 6 7 9 8 6 4 5 11 15 15 14 11 9 12 16 15 15 15 14 14 13 13 12 11 11 10 9 8 7 7 7 6 6 5 5 4 3 3 2
3 4 3 2 5 3 2 3 3 6 5 7 10 9 6 4 14 17 14 14 14 10 8 10 14 15 14 14 14 13 13 12 11 10 9 8 7 7 6 6 6 5 4 4 3 3 2 1 0
4 4 3 3 4 2 2 1 5 11 10 9 11 10 5 7 13 13 13 12 12 12 9 9 14 15 13 13 13 12 12 11 10 9 8 7 6 5 5 5 5 4 3 2 2 2 2 1 1
3 3 3 3 2 2 3 1 5 9 9 5 7 8 6 7 10 12 13 12 10 10 9 7 7 9 12 11 11 11 10 9 9 8 7 6 6 5 5 4 4 3 3 2 2 2 2 3 3
5 3 2 2 0 2 2 2 5 7 7 5 5 9 8 8 11 13 13 11 10 8 8 7 6 6 6 6 10 10 9 8 8 7 6 5 5 4 4 3 3 3 3 3 3 3 4 4 4
3 3 3 3 2 2 1 4 4 6 8 5 5 6 11 13 14 14 13 10 8 8 6 6 6 5 5 6 8 8 8 7 6 5 5 4 1 1 1 2 3 3 3 4 4 3 4 5 5
4 3 6 4 4 3 1 4 5 7 8 7 9 10 13 12 13 14 12 10 9 8 5 4 5 5 5 5 4 3 4 4 3 2 2 1 1 0 0 1 2 3 3 3 4 4 5 4 2
4 5 4 2 2 4 4 3 3 10 7 8 13 13 12 12 12 12 10 9 9 9 7 5 5 4 4 3 3 2 2 2 2 2 2 1 1 0 0 0 1 2 2 2 2 3 2 2 1
2 3 3 2 3 3 4 5 6 5 8 11 13 14 11 11 10 11 10 9 8 8 7 5 5 4 4 4 3 3 2 2 1 1 1 1 1 1 1 0 1 1 1 1 1 1 2 2 2
3 3 1 3 5 6 9 9 9 7 10 11 13 14 12 11 9 7 8 8 8 7 6 5 5 5 5 4 3 3 2 2 2 2 2 2 2 1 1 1 1 1 1 1 2 1 2 2 2
3 2 1 3 4 4 10 7 7 7 9 10 11 11 11 9 8 7 8 8 7 6 5 5 6 5 5 4 3 3 3 2 2 2 2 3 2 2 2 2 2 2 1 1 1 2 2 2 2
2 2 2 1 4 4 9 7 5 9 10 11 11 11 11 8 7 7 8 7 7 6 5 5 6 5 5 5 4 4 3 3 3 2 3 3 3 2 2 2 2 2 2 2 1 2 2 2 2
3 3 1 3 3 3 7 6 6 9 12 11 11 11 11 7 7 7 7 6 6 6 5 5 6 6 5 4 4 3 4 4 3 3 3 3 3 3 2 2 2 2 2 2 1 1 2 2 2
4 0 2 4 2 3 6 6 8 9 11 11 11 11 11 8 6 6 7 6 6 6 6 6 6 6 5 5 4 4 4 4 3 3 3 3 4 3 2 2 2 2 2 2 2 1 1 1 2
2 2 2 4 4 4 6 7 9 9 12 12 11 10 11 10 7 7 6 6 6 6 6 6 5 5 5 4 4 3 4 3 2 2 3 3 3 3 2 2 2 2 2 2 2 2 1 1 2
3 2 3 5 5 5 7 9 10 9 9 10 10 10 11 9 7 7 7 6 6 6 6 6 5 4 4 3 3 3 2 2 2 1 2 2 3 3 2 2 2 2 2 2 2 1 2 2 2
2 2 4 4 2 4 6 6 7 9 11 12 12 12 12 10 9 8 7 5 5 6 6 5 5 4 3 2 2 2 2 2 1 1 1 2 2 2 2 2 2 2 2 3 3 2 1 1 2
4 5 5 4 0 4 6 1 1 2 4 6 8 9 11 13 12 9 8 6 6 5 5 5 4 4 3 3 3 3 3 2 2 1 1 1 1 2 2 2 2 2 2 2 2 2 2 1 2
4 5 4 4 4 0 3 3 3 3 4 6 8 9 9 10 10 9 8 8 7 6 5 6 5 4 3 3 3 4 3 2 1 1 0 1 2 2 2 2 2 2 1 1 2 2 1 1 1
4 3 3 3 4 3 2 3 3 2 4 7 9 10 10 10 10 9 8 7 7 7 6 5 5 3 3 3 3 3 2 1 1 1 2 2 2 2 2 2 2 2 1 2 2 2 2 1 1
3 4 6 6 5 2 2 2 3 3 6 8 9 10 10 10 9 8 7 7 7 6 6 5 5 3 3 3 3 3 3 2 3 2 2 1 1 2 2 2 2 1 1 1 2 2 2 1 1
5 6 4 5 4 3 2 2 4 4 5 8 10 10 9 9 8 9 9 9 8 7 6 5 5 3 2 3 2 2 2 3 3 2 1 1 1 1 2 1 1 1 1 1 1 2 2 1 1
3 8 7 4 4 3 2 1 3 2 1 5 8 9 10 9 8 8 8 8 7 6 6 5 4 3 2 2 2 2 2 2 1 1 1 1 0 1 1 1 1 2 2 2 2 1 2 2 2
3 2 6 7 2 1 2 1 1 3 5 6 8 10 10 9 9 8 8 7 6 6 5 5 4 3 2 2 2 2 3 3 2 1 1 0 0 0 1 2 2 2 2 2 2 1 2 2 2
4 4 5 5 4 1 2 3 4 4 4 5 7 8 8 8 8 8 7 7 5 5 4 4 4 4 3 2 2 3 3 2 2 2 2 2 2 2 2 2 2 3 3 2 2 2 2 2 2
2 3 4 4 5 5 2 5 4 8 8 9 8 8 9 9 8 8 7 7 6 5 4 3 3 3 3 3 3 3 3 2 3 2 2 2 2 2 3 2 2 3 3 3 2 2 2 2 3
3 3 5 5 3 3 3 5 0 6 7 9 9 9 8 8 8 8 8 7 6 5 4 4 3 3 3 3 3 3 2 3 3 2 2 2 2 2 2 2 3 3 3 3 3 3 3 2 3
Wind_Direction
305 287 111 59 54 48 276 265 239 342 37 68 89 94 95 78 113 131 123 127 129 132 134 132 130 129 127 123 121 118 116 112 109 105 102 100 99 98 98 99 98 97 97 97 97 97 94 94 95
298 310 60 60 84 54 269 244 171 111 131 113 82 80 77 69 79 104 116 130 130 129 130 130 129 130 129 127 126 124 121 118 115 113 110 107 105 102 102 101 101 100 100 100 100 98 95 92 90
287 21 82 79 135 189 220 233 145 112 115 100 82 61 70 94 99 108 132 133 125 123 126 132 130 131 131 129 129 127 125 123 121 119 117 114 111 107 107 106 105 106 104 102 102 101 100 94 85
36 46 54 81 242 235 203 238 167 117 80 72 96 74 61 75 108 126 133 131 123 121 124 131 130 131 132 131 131 131 129 127 126 124 122 120 117 113 112 113 112 112 113 110 107 105 105 103 91
64 73 59 314 257 254 213 228 217 124 93 91 98 95 70 60 113 125 132 129 125 122 123 131 130 132 133 134 134 133 132 131 131 130 129 127 124 123 122 121 122 121 124 124 122 124 128 137 154
51 70 92 258 264 294 284 212 118 103 108 104 101 104 92 114 124 129 128 124 126 128 126 129 131 133 134 135 135 135 135 134 135 135 135 135 136 136 136 135 135 136 138 146 154 170 195 221 257
114 103 195 238 289 318 283 234 118 120 112 110 117 106 116 130 132 127 123 119 119 123 123 122 127 130 132 134 135 136 136 136 137 136 137 142 146 150 153 154 159 161 169 189 208 220 232 243 259
150 98 291 271 180 282 278 68 76 94 98 115 114 124 144 152 129 120 114 111 113 115 120 122 122 125 132 138 140 139 137 136 134 133 134 138 143 153 170 178 192 199 205 218 229 242 255 263 269
117 83 254 238 174 227 14 83 65 56 92 76 73 114 136 135 123 117 113 108 111 114 118 125 129 133 138 142 142 139 138 132 130 133 134 130 123 144 195 214 214 221 224 235 238 246 262 271 277
118 165 233 212 175 155 120 105 124 99 86 82 83 95 119 122 121 121 124 124 128 134 136 137 137 142 145 144 137 135 134 129 128 131 138 130 129 185 214 260 254 254 249 255 259 263 266 272 279
173 201 226 246 182 146 135 99 88 118 110 136 131 126 121 119 118 120 124 131 135 140 144 144 141 143 146 136 139 134 128 130 131 142 163 157 140 331 342 326 297 299 288 287 293 295 284 276 274
229 250 199 178 126 117 109 107 79 99 137 136 130 125 118 120 126 133 136 134 128 128 132 128 131 131 132 130 136 134 132 133 125 110 112 107 81 48 32 24 336 328 310 306 296 282 280 278 271
218 245 221 135 110 100 96 98 103 99 113 118 121 121 127 126 119 117 122 124 122 121 122 125 124 124 124 120 125 121 127 127 117 84 67 88 85 68 56 18 359 336 317 305 299 302 296 285 277
205 179 140 121 114 106 106 99 96 122 122 120 122 121 120 122 121 113 115 119 120 122 127 124 118 119 114 110 112 110 112 111 98 86 76 80 81 64 50 33 16 352 327 311 302 306 300 301 306
137 100 36 164 130 132 105 77 127 146 138 128 127 128 123 124 121 125 128 126 130 132 130 125 120 114 111 112 108 100 99 95 87 76 65 64 67 67 66 45 15 341 337 346 356 352 346 344 343
27 51 65 262 156 165 112 137 165 155 141 136 139 139 129 130 133 135 129 124 128 128 124 119 118 113 114 113 101 94 90 90 87 80 65 51 52 65 66 46 14 352 351 359 2 14 1 349 344
15 112 214 274 243 143 120 157 178 166 148 146 146 145 140 139 133 130 129 125 120 119 116 107 107 111 109 105 102 98 91 87 87 81 69 51 46 54 60 40 6 1 12 7 352 17 355 334 335
243 228 235 236 243 138 138 164 174 174 163 158 155 152 148 151 151 145 129 118 112 108 106 104 103 106 107 101 95 90 84 82 80 80 74 62 51 51 56 52 16 1 12 10 5 357 352 328 325
205 241 252 251 211 149 162 166 180 178 168 162 162 161 156 156 151 143 129 124 116 109 106 105 104 104 107 110 113 107 103 103 84 75 82 73 66 62 57 38 27 23 30 16 5 4 3 350 352
223 245 269 291 219 151 163 179 181 181 180 171 170 168 159 150 147 145 134 125 121 123 116 110 109 105 100 113 117 118 117 111 108 70 46 56 70 64 65 49 37 25 23 20 19 29 18 340 4
246 213 224 219 52 79 114 82 200 195 157 163 168 168 165 162 160 156 146 139 130 127 127 118 108 100 92 93 89 82 66 57 50 37 14 4 47 59 56 57 59 36 34 14 5 22 42 342 323
245 226 189 169 113 70 128 164 252 189 152 167 170 171 174 166 160 160 153 147 143 136 125 115 110 105 105 104 109 115 120 133 171 155 53 5 26 38 43 54 55 41 31 14 346 19 8 30 333
210 197 137 128 111 75 29 123 261 198 181 184 180 177 175 170 166 161 156 148 142 135 128 122 114 112 108 104 114 117 112 125 92 76 60 29 16 19 30 49 49 41 28 7 359 4 4 7 318
149 74 45 48 68 62 253 145 259 225 210 190 181 178 172 165 158 150 141 132 130 128 123 118 113 107 105 105 108 120 124 113 94 80 68 31 7 2 6 21 27 23 19 5 352 354 358 354 337
82 88 42 11 18 258 272 136 238 251 212 184 175 170 161 147 141 142 141 133 129 131 127 124 120 110 102 103 101 109 120 120 121 127 106 69 17 347 329 0 4 354 350 352 359 359 338 346 338
167 136 154 177 211 264 332 197 254 306 153 144 142 138 135 133 135 140 137 130 131 131 127 123 119 119 102 97 90 82 89 98 107 118 123 122 201 260 298 347 349 347 359 5 10 4 331 347 333
141 163 165 133 139 114 285 250 306 55 80 103 118 130 138 142 140 137 132 130 134 130 124 122 122 110 95 101 98 77 76 85 87 74 67 62 318 338 9 11 7 0 4 1 4 356 342 348 330
130 143 90 103 136 218 273 246 216 176 143 127 128 134 138 142 138 133 130 131 127 123 118 115 116 118 110 90 90 92 81 83 83 81 59 41 19 25 25 21 24 15 5 1 6 344 345 5 345
53 75 106 117 142 153 223 262 217 177 167 154 146 142 143 144 144 140 140 136 128 126 130 128 123 116 100 90 89 85 75 71 70 67 50 40 30 27 28 22 29 21 12 7 5 348 353 6 355
153 154 139 144 191 161 172 260 283 152 156 147 144 143 141 140 144 144 143 140 140 146 149 148 144 133 127 119 101 90 77 67 59 45 33 39 35 29 36 42 39 30 22 16 21 12 14 13 358